Location: Kapuskasing
(49.3803°N, 82.4001°W)
Time: 04:29:12
(UTC-04:00)

RS-44 - Visible Passes

Search period start: 14 March 2026 00:00
Search period end: 24 March 2026 00:00
Orbit: 1174 x 1511 km, 82.5° (Epoch: 13 March)

Date Brightness Start Highest point End Pass type
(mag) Time Alt. Az. Time Alt. Az. Time Alt. Az.
14 Mar ? 02:32:19 10° N 02:39:22 30° ENE 02:43:04 22° E visible
14 Mar ? 04:25:22 10° NNW 04:33:36 76° W 04:35:37 57° SSW visible
14 Mar ? 06:20:35 10° NW 06:25:46 18° WNW 06:28:09 16° W visible
15 Mar ? 01:05:20 10° NNE 01:07:27 11° NE 01:09:37 10° ENE visible
15 Mar ? 02:55:48 10° N 03:03:35 43° ENE 03:06:12 35° ESE visible
15 Mar ? 04:49:16 10° NNW 04:57:14 53° W 04:58:45 48° WSW visible
15 Mar ? 06:46:26 10° NW 06:48:49 11° WNW 06:51:15 10° W visible
16 Mar ? 01:27:21 10° NNE 01:32:14 16° NE 01:36:52 11° E visible
16 Mar ? 03:19:24 10° N 03:27:38 61° ENE 03:29:25 52° ESE visible
16 Mar ? 05:13:20 10° NNW 05:20:45 37° W 05:21:59 35° WSW visible
17 Mar ? 01:50:24 10° N 01:56:48 24° ENE 02:00:08 19° E visible
17 Mar ? 03:43:07 10° N 03:51:31 85° E 03:52:42 70° SSE visible
17 Mar ? 05:37:39 10° NNW 05:44:05 25° W 05:45:15 25° W visible
18 Mar ? 02:13:45 10° N 02:21:10 33° ENE 02:23:27 29° E visible
18 Mar ? 04:06:57 10° NNW 04:15:16 70° W 04:16:02 67° SW visible
18 Mar ? 06:02:26 10° NW 06:07:16 17° WNW 06:08:35 16° W visible
19 Mar ? 00:46:02 10° NNE 00:49:23 13° NE 00:52:48 10° ENE visible
19 Mar ? 02:37:17 10° N 02:45:21 47° ENE 02:46:49 44° E visible
19 Mar ? 04:30:54 10° NNW 04:38:52 49° W 04:39:23 48° W visible
19 Mar ? 06:29:32 10° WNW 06:30:15 10° WNW 06:30:58 10° WNW visible
20 Mar ? 01:08:37 10° N 01:14:08 18° NE 01:17:39 15° E visible
20 Mar ? 03:00:56 10° N 03:09:21 67° ENE 03:10:14 63° ESE visible
20 Mar ? 04:55:01 10° NNW 05:02:20 34° W 05:02:48 34° W visible
21 Mar ? 01:31:48 10° N 01:38:39 26° ENE 01:41:05 23° E visible
21 Mar ? 03:24:41 10° N 03:33:13 89° W 03:33:39 83° S visible
21 Mar ? 05:19:25 10° NNW 05:25:37 23° WNW 05:26:13 23° W visible
22 Mar ? 01:55:14 10° N 02:02:58 37° ENE 02:04:32 35° E visible
22 Mar ? 03:48:33 10° NNW 03:56:56 64° W 03:57:06 64° W visible
22 Mar ? 05:44:23 10° NW 05:48:44 15° WNW 05:49:40 15° WNW visible
23 Mar ? 00:27:06 10° NNE 00:31:19 14° NE 00:35:26 10° ENE visible
23 Mar ? 02:18:48 10° N 02:27:07 52° ENE 02:28:00 50° E visible
23 Mar ? 04:12:33 10° NNW 04:20:30 45° W 04:20:35 45° W visible
